Wind_Speed
14 14 14 14 14 15 14 15 15 16 15 15 16 19 19 19 19 19 18 16 17 17 16 14 12 10 9 9 9 9 8 12 12 11 8 9 7 6 6 6 5 5 5 4 5
14 14 14 14 14 15 14 15 16 15 15 16 18 19 19 19 18 18 17 16 16 15 15 13 12 11 10 9 10 10 9 11 11 10 9 8 6 5 5 6 4 4 4 4 5
14 14 14 14 15 15 15 16 16 16 16 17 19 20 19 19 19 17 17 17 17 16 15 13 12 11 11 10 10 9 10 10 9 8 8 7 7 6 5 6 5 4 4 4 6
13 13 14 15 14 15 16 17 16 16 16 18 19 20 19 20 15 18 17 17 17 16 15 14 13 12 11 11 10 10 10 9 8 7 7 7 6 6 7 6 6 6 4 4 5
13 14 13 14 15 15 16 16 16 16 17 18 19 19 20 21 17 17 17 17 16 16 15 15 14 13 12 11 10 10 10 9 8 7 7 7 7 8 8 8 8 8 7 7 7
13 14 14 15 15 15 16 16 16 16 17 19 19 20 20 19 19 14 18 17 17 16 16 15 14 13 12 11 11 10 10 9 8 8 8 8 8 9 8 8 8 10 10 10 10
13 14 14 15 15 15 15 15 16 16 17 18 18 19 20 19 16 16 17 17 17 16 15 15 15 14 12 11 11 11 11 9 9 9 9 9 11 11 10 9 10 11 12 12 13
14 14 14 15 15 15 15 15 15 16 16 18 18 18 19 18 18 15 16 17 16 16 16 15 14 14 12 12 12 12 11 11 11 11 11 10 8 8 11 10 12 14 14 14 16
14 14 15 15 15 15 16 15 15 16 16 16 17 17 17 19 19 17 17 17 16 16 15 15 15 14 14 14 13 13 8 13 11 13 14 13 8 10 13 13 14 14 14 16 18
14 13 14 14 14 15 14 14 14 14 15 15 16 15 15 20 21 20 19 19 19 17 16 16 16 16 16 15 10 11 15 13 14 13 16 16 14 15 16 15 13 15 16 16 15
12 13 13 14 14 13 13 13 15 15 16 18 13 20 11 20 19 22 22 21 20 19 18 18 18 18 15 16 17 13 12 13 14 16 18 20 19 15 18 20 16 17 19 19 18
11 12 12 13 13 12 11 12 12 12 16 18 17 17 19 10 19 19 23 21 21 21 20 19 19 19 18 18 17 16 16 16 15 16 18 22 25 19 21 24 21 21 21 23 22
10 11 11 11 13 13 12 12 11 10 10 15 19 20 18 18 18 15 19 20 21 21 21 21 16 20 19 19 18 18 17 15 16 16 19 25 33 26 20 18 18 22 23 21 20
9 10 11 12 13 13 12 11 10 9 7 10 18 20 21 21 20 21 20 18 18 18 20 18 24 22 19 21 19 18 17 16 16 15 10 12 12 25 26 22 18 22 20 20 18
10 11 11 11 10 11 12 12 10 8 2 8 17 19 22 22 20 21 23 22 21 20 18 14 14 23 23 20 19 18 15 14 15 15 17 21 11 28 23 28 19 17 19 18 19
13 12 13 13 13 13 13 13 12 7 6 7 7 13 18 19 21 19 18 21 24 23 22 23 17 17 21 24 21 18 14 12 13 12 6 15 17 26 17 8 10 12 15 19 15
15 15 16 17 16 16 16 16 10 8 7 9 11 11 10 14 17 17 15 16 16 15 23 24 25 22 19 18 20 19 11 2 3 1 6 7 12 33 9 13 20 17 17 16 17
17 17 17 17 19 19 20 20 12 8 18 8 10 11 12 11 14 15 18 18 20 20 11 16 10 26 23 27 18 20 20 8 7 3 3 8 13 17 6 14 21 22 18 16 17
20 20 20 19 20 21 23 24 13 21 13 19 16 13 14 14 12 13 17 18 18 19 14 12 13 14 22 25 27 19 21 21 8 7 5 12 24 35 29 28 26 20 22 15 11
24 24 22 22 23 24 28 30 23 21 17 18 19 11 10 18 19 15 15 9 15 19 21 14 10 16 23 24 25 29 17 10 12 3 5 7 13 21 5 8 14 17 10 12 11
28 27 27 26 28 31 38 37 32 30 24 23 21 21 19 18 19 19 13 14 14 14 15 23 23 16 20 24 31 32 31 20 14 11 5 1 9 7 12 16 16 17 11 16 14
32 33 31 31 34 41 44 40 37 35 31 32 30 28 27 25 25 26 25 21 14 13 20 24 18 19 29 27 27 33 34 36 24 11 15 9 24 21 12 16 19 19 15 16 19
36 37 37 36 42 46 45 43 40 39 37 36 36 36 34 33 28 29 33 32 31 30 23 26 22 13 9 22 29 34 41 41 44 41 33 13 15 12 21 30 28 33 23 20 25
41 40 44 46 50 47 46 45 43 40 38 38 38 37 36 35 35 36 34 25 26 28 29 32 38 32 30 21 15 30 40 45 46 38 31 53 45 37 25 24 24 23 25 32 35
46 55 55 43 54 55 49 49 48 46 44 42 44 45 43 43 45 46 43 40 39 37 35 39 48 47 50 47 40 37 38 34 47 53 41 57 51 53 45 42 39 39 38 36 40
60 63 55 57 54 51 42 52 52 49 42 45 46 43 40 47 46 44 39 39 39 32 42 45 51 45 55 47 40 43 51 51 49 49 55 57 66 53 51 47 44 33 32 34 33
52 55 57 61 60 57 65 63 57 48 48 44 44 41 45 46 37 37 41 44 42 36 40 41 47 43 48 35 28 30 73 61 57 60 60 60 63 51 46 40 28 30 34 30 31
Wind_Direction
195 195 194 191 194 198 199 201 205 205 200 194 186 184 184 184 183 180 175 175 171 166 162 165 160 158 170 177 175 171 172 165 164 167 175 178 185 197 214 229 245 280 292 294 290
197 196 196 195 197 200 201 203 207 205 199 191 187 185 185 187 187 185 180 181 176 171 168 167 162 161 172 179 178 176 178 171 168 170 168 184 200 213 231 256 262 271 277 296 303
201 200 198 197 201 200 202 205 206 203 198 192 188 186 186 189 190 190 188 187 180 177 174 170 167 170 176 181 182 185 179 171 173 180 182 191 211 219 242 258 267 253 261 292 300
202 204 202 200 203 204 205 206 205 201 197 193 191 189 189 192 192 196 194 193 190 182 180 176 174 181 186 187 188 183 179 172 179 191 202 207 217 234 247 260 270 271 270 269 280
204 203 205 204 202 206 208 207 205 201 197 195 192 193 194 196 195 198 200 198 195 189 185 184 183 184 191 194 190 184 186 183 189 199 217 223 228 235 250 259 260 259 266 280 285
208 204 204 205 203 205 208 209 207 203 199 196 195 196 198 201 204 205 204 202 199 196 192 190 188 188 194 196 192 195 194 199 204 214 224 236 242 250 246 252 254 261 268 277 282
213 208 206 204 205 204 206 208 209 207 202 199 196 200 203 205 210 210 209 208 204 200 199 196 193 194 196 199 204 198 200 213 219 229 223 240 252 253 246 246 261 263 271 276 279
212 211 207 203 204 205 206 206 207 210 207 204 200 203 209 210 216 212 211 212 209 207 204 204 201 200 201 208 202 199 215 217 227 230 234 240 252 243 251 251 262 273 279 281 282
205 206 207 203 202 205 205 205 207 209 209 208 206 208 211 213 216 215 214 215 213 214 213 210 208 209 208 210 205 212 224 222 227 227 240 243 245 245 255 251 262 270 280 290 289
201 202 201 206 204 207 206 204 207 209 208 206 209 209 220 217 219 220 221 224 226 225 223 219 215 215 215 216 218 226 224 222 227 238 246 251 243 258 260 253 259 267 276 283 284
198 197 199 202 207 205 205 203 204 207 207 209 210 211 213 217 219 222 225 225 227 226 225 224 223 223 222 226 232 240 235 232 238 247 258 261 259 238 251 258 262 271 271 282 274
197 198 196 200 202 202 205 204 209 215 213 214 216 216 219 207 219 219 222 222 224 226 225 224 226 227 227 229 234 238 239 241 251 256 264 270 270 258 249 262 269 264 270 277 263
197 197 195 190 193 198 197 200 204 210 220 226 227 226 226 226 225 220 220 221 225 227 228 228 233 233 233 235 237 239 237 245 254 265 275 284 284 281 264 261 261 275 273 267 255
189 192 197 199 192 192 195 198 204 207 232 240 228 233 235 234 236 230 226 223 223 223 225 234 235 235 234 236 236 230 239 248 253 270 271 282 291 275 278 279 275 278 261 253 251
197 192 198 203 210 206 199 199 197 192 338 230 223 220 224 224 230 232 232 230 229 227 220 225 230 232 231 226 225 239 240 242 257 263 274 268 262 281 283 288 283 253 256 243 259
214 211 203 203 207 211 209 205 196 196 251 222 213 217 223 224 228 230 228 227 232 233 232 234 237 231 228 231 234 235 236 253 266 265 270 256 228 280 282 280 261 258 238 267 248
224 221 219 217 215 214 210 204 193 212 219 230 225 218 213 217 226 228 229 229 218 214 230 233 236 238 233 224 222 222 222 272 316 147 230 236 219 254 250 276 278 268 259 250 241
229 227 226 223 222 218 212 203 212 215 216 214 203 207 216 216 223 226 226 226 224 222 226 218 221 228 231 228 231 227 221 208 215 206 262 233 236 263 272 256 272 267 253 256 243
234 230 229 226 225 223 218 209 218 225 227 232 226 221 226 224 223 223 232 238 238 238 221 215 222 222 225 227 223 225 224 233 242 273 299 248 260 268 265 271 267 258 256 250 236
238 237 233 228 228 226 224 222 223 225 224 234 239 235 227 236 230 230 231 246 244 240 229 235 239 240 229 228 226 223 226 205 203 199 251 247 254 249 248 239 229 233 231 246 245
240 239 235 232 230 229 229 228 234 235 238 243 239 240 234 239 235 237 238 241 242 245 243 236 240 240 231 232 234 226 222 218 222 218 199 246 252 261 229 241 219 190 243 246 228
241 241 240 238 233 235 237 239 241 242 243 248 249 247 247 249 257 254 249 246 253 244 255 247 241 241 246 243 237 232 234 233 225 227 222 243 251 252 250 231 216 219 231 230 243
245 246 244 242 240 241 246 247 246 246 246 247 250 253 255 253 252 259 262 263 260 256 257 250 235 232 243 246 238 234 234 233 235 240 240 223 257 263 239 231 242 248 240 242 277
239 240 243 242 246 247 247 249 248 250 250 251 254 255 255 255 256 257 255 260 264 260 252 244 242 236 235 241 233 235 245 241 236 235 240 240 248 250 250 239 238 230 260 271 271
243 240 241 243 243 245 247 251 253 247 248 247 247 246 252 258 261 258 262 263 262 259 250 239 244 245 250 250 251 255 258 251 242 248 232 259 256 262 257 258 259 267 264 264 268
246 238 239 240 245 246 248 250 250 250 246 251 252 257 258 254 255 264 267 264 258 254 249 244 243 248 249 248 252 254 255 253 251 255 257 260 263 258 266 267 274 268 252 253 260
240 245 246 251 249 248 250 253 256 257 254 254 259 258 257 260 264 264 262 259 256 250 243 242 243 242 252 256 257 257 252 246 247 249 248 249 267 273 273 273 262 258 263 262 256
Height
3096 3098 3099 3101 3104 3106 3107 3109 3111 3114 3116 3119 3121 3123 3126 3128 3131 3133 3135 3137 3138 3139 3141 3143 3145 3147 3149 3150 3151 3152 3153 3153 3154 3156 3159 3160 3162 3164 3166 3166 3167 3167 3168 3169 3169
3095 3097 3098 3100 3102 3104 3106 3108 3111 3113 3116 3118 3120 3122 3125 3128 3131 3133 3135 3136 3137 3139 3141 3143 3144 3146 3148 3150 3151 3152 3153 3153 3155 3156 3158 3160 3161 3163 3164 3164 3165 3166 3166 3167 3167
3094 3096 3097 3099 3101 3103 3105 3107 3110 3112 3114 3117 3118 3121 3124 3128 3131 3132 3134 3135 3137 3138 3140 3142 3143 3145 3148 3149 3150 3151 3152 3154 3155 3156 3157 3159 3160 3161 3162 3163 3164 3164 3165 3166 3165
3093 3094 3096 3098 3099 3102 3103 3106 3108 3111 3113 3115 3118 3120 3124 3127 3132 3131 3133 3135 3136 3137 3139 3140 3142 3144 3147 3148 3150 3151 3151 3153 3155 3156 3157 3158 3159 3159 3160 3161 3161 3162 3163 3164 3165
3091 3092 3094 3096 3098 3100 3102 3104 3106 3109 3111 3114 3117 3120 3123 3126 3128 3129 3131 3133 3135 3136 3138 3140 3141 3143 3145 3147 3149 3150 3151 3152 3153 3155 3156 3157 3157 3158 3159 3159 3160 3160 3161 3161 3163
3089 3090 3092 3094 3096 3099 3101 3103 3105 3107 3110 3112 3115 3118 3121 3125 3126 3127 3130 3132 3134 3135 3137 3138 3140 3142 3144 3146 3148 3149 3150 3151 3152 3153 3154 3156 3156 3156 3157 3157 3158 3159 3159 3160 3160
3088 3089 3090 3092 3094 3096 3099 3101 3103 3106 3108 3110 3113 3116 3119 3123 3124 3126 3128 3131 3133 3134 3135 3137 3139 3141 3143 3144 3146 3147 3149 3150 3151 3151 3152 3153 3154 3154 3155 3155 3156 3156 3157 3157 3157
3086 3087 3089 3090 3092 3094 3097 3099 3101 3104 3106 3108 3111 3114 3117 3119 3122 3124 3127 3129 3131 3132 3134 3136 3137 3139 3141 3143 3144 3146 3148 3148 3149 3149 3150 3152 3151 3152 3152 3153 3153 3153 3153 3153 3153
3084 3086 3088 3089 3090 3093 3095 3097 3099 3102 3104 3107 3110 3112 3115 3117 3120 3122 3125 3127 3129 3131 3133 3134 3136 3138 3140 3141 3143 3144 3144 3145 3147 3147 3148 3149 3148 3149 3150 3150 3150 3149 3149 3149 3149
3083 3084 3085 3088 3090 3092 3093 3095 3098 3100 3103 3105 3107 3113 3112 3114 3116 3119 3121 3124 3127 3128 3131 3133 3134 3135 3137 3139 3140 3141 3142 3143 3144 3145 3145 3145 3146 3145 3145 3146 3146 3146 3145 3146 3146
3081 3082 3083 3086 3088 3090 3092 3094 3099 3101 3101 3103 3104 3105 3107 3110 3112 3115 3118 3121 3123 3126 3128 3129 3131 3132 3135 3136 3138 3139 3139 3140 3141 3142 3142 3141 3141 3144 3141 3140 3142 3142 3141 3141 3142
3080 3081 3082 3084 3086 3088 3091 3092 3095 3098 3099 3099 3101 3103 3105 3106 3109 3111 3114 3118 3120 3122 3124 3127 3127 3129 3131 3133 3134 3135 3136 3137 3138 3138 3138 3136 3135 3138 3138 3136 3137 3137 3137 3136 3136
3079 3080 3081 3082 3084 3087 3089 3091 3093 3095 3097 3098 3098 3100 3103 3105 3106 3108 3111 3113 3115 3118 3120 3123 3124 3126 3128 3129 3131 3132 3133 3134 3136 3135 3134 3132 3126 3128 3131 3131 3131 3132 3131 3130 3131
3077 3078 3080 3082 3085 3084 3087 3089 3091 3093 3095 3095 3094 3095 3098 3100 3103 3105 3107 3111 3112 3114 3117 3119 3120 3122 3123 3126 3129 3128 3129 3130 3131 3133 3132 3131 3124 3121 3125 3126 3126 3125 3124 3124 3125
3075 3076 3078 3081 3083 3084 3087 3087 3090 3092 3093 3090 3088 3088 3092 3096 3098 3099 3103 3106 3108 3110 3115 3114 3115 3117 3119 3121 3123 3125 3126 3127 3128 3128 3128 3126 3130 3110 3115 3117 3119 3118 3118 3119 3120
3073 3074 3076 3078 3080 3083 3084 3086 3089 3093 3086 3084 3083 3084 3088 3090 3092 3095 3098 3101 3104 3106 3108 3110 3112 3114 3115 3117 3119 3121 3124 3125 3125 3125 3124 3119 3124 3102 3110 3111 3112 3113 3114 3114 3114
3070 3071 3073 3074 3077 3078 3081 3084 3088 3084 3083 3081 3080 3081 3084 3086 3089 3091 3094 3096 3099 3102 3102 3105 3108 3110 3112 3114 3115 3118 3122 3124 3125 3125 3117 3114 3115 3097 3106 3106 3107 3108 3109 3109 3110
3067 3068 3069 3072 3073 3075 3076 3080 3078 3075 3076 3077 3077 3079 3081 3084 3085 3087 3089 3091 3093 3095 3096 3100 3103 3103 3106 3109 3112 3113 3117 3118 3122 3122 3112 3112 3101 3094 3099 3101 3102 3103 3102 3104 3105
3062 3063 3065 3067 3068 3070 3072 3071 3069 3071 3073 3075 3076 3076 3078 3080 3083 3083 3084 3086 3089 3091 3094 3095 3097 3096 3099 3102 3107 3106 3109 3111 3112 3111 3111 3099 3091 3090 3094 3095 3095 3096 3097 3098 3100
3056 3058 3060 3061 3063 3064 3064 3062 3064 3068 3069 3071 3072 3074 3073 3075 3078 3079 3081 3082 3084 3087 3088 3090 3092 3093 3094 3096 3098 3100 3103 3106 3108 3111 3111 3089 3085 3083 3086 3088 3089 3090 3093 3094 3095
3050 3051 3053 3055 3056 3055 3050 3054 3059 3062 3065 3067 3067 3068 3069 3071 3072 3074 3074 3078 3079 3082 3084 3085 3088 3088 3088 3087 3088 3091 3093 3097 3099 3096 3092 3093 3076 3077 3080 3083 3084 3087 3088 3090 3091
3042 3043 3046 3046 3048 3041 3040 3047 3052 3055 3058 3060 3061 3062 3064 3067 3067 3068 3069 3074 3075 3078 3078 3081 3079 3077 3080 3079 3080 3081 3083 3088 3088 3086 3082 3079 3065 3074 3077 3081 3082 3082 3083 3084 3086
3033 3034 3036 3037 3032 3031 3034 3038 3043 3046 3049 3051 3053 3054 3057 3059 3062 3060 3062 3066 3067 3071 3072 3075 3070 3072 3071 3073 3071 3069 3071 3075 3076 3074 3066 3074 3056 3066 3069 3074 3076 3076 3078 3079 3079
3022 3024 3023 3022 3020 3023 3025 3028 3032 3037 3040 3042 3045 3045 3047 3049 3052 3049 3051 3057 3059 3062 3064 3065 3060 3054 3052 3056 3057 3057 3061 3064 3066 3060 3058 3043 3051 3057 3062 3066 3067 3068 3070 3070 3070
3007 3005 3008 3006 3005 3011 3017 3019 3021 3025 3030 3033 3033 3033 3038 3040 3040 3038 3043 3047 3049 3052 3053 3053 3046 3047 3046 3048 3049 3050 3051 3053 3047 3045 3048 3033 3038 3044 3055 3057 3061 3061 3060 3058 3058
2989 2990 2994 2997 2998 3006 3006 3002 3008 3014 3019 3020 3022 3026 3029 3025 3029 3032 3036 3035 3038 3039 3041 3039 3034 3037 3033 3037 3039 3039 3037 3035 3036 3037 3032 3031 3016 3035 3041 3045 3045 3046 3047 3047 3049
2978 2977 2986 2983 2989 2991 2985 2991 2998 3008 3006 3011 3014 3017 3014 3014 3023 3024 3023 3023 3025 3026 3027 3030 3028 3028 3020 3030 3034 3031 2999 3015 3020 3018 3019 3016 3007 3030 3029 3032 3034 3033 3034 3037 3038